Total_Precipitation_Accumulation
1.84 1.94 2.95 2.94 2.44 2.26 2.38 2.28 2.26 2.24 2.20 2.18 2.08 1.95 1.85 1.68 1.43 1.27 1.12 1.00 0.94 0.99 0.96 0.92 0.92 0.84 0.72 0.62 0.63 0.75 0.85 0.97 1.02 1.04 1.16 1.22 1.21 1.36 1.54 1.78 2.04 2.24 2.01
1.55 1.86 2.92 2.92 2.41 2.04 2.05 2.07 2.16 2.16 2.13 2.08 1.97 1.94 1.75 1.61 1.44 1.25 1.10 1.01 0.94 1.00 1.04 1.04 1.01 0.90 0.73 0.67 0.72 0.85 0.89 0.97 1.07 1.16 1.39 1.52 1.47 1.52 1.40 1.57 1.85 2.14 2.00
1.51 1.70 2.24 2.63 2.39 2.03 1.91 2.01 2.09 2.00 1.98 1.98 1.91 1.95 1.63 1.51 1.43 1.28 1.15 1.10 1.05 0.98 0.96 1.11 1.15 1.06 0.89 0.85 0.93 1.00 1.08 1.10 1.17 1.29 1.85 2.55 1.92 1.66 1.68 1.75 1.87 1.87 1.89
1.49 1.53 1.81 2.41 2.27 2.02 1.96 2.05 2.07 2.00 1.98 2.01 1.91 1.73 1.45 1.42 1.39 1.34 1.31 1.26 1.14 1.00 0.96 1.02 1.12 1.14 1.05 0.98 1.01 1.06 1.23 1.27 1.33 1.42 1.83 2.42 2.32 1.95 1.79 1.82 1.86 1.75 1.82
1.41 1.51 1.97 2.30 2.16 1.97 1.80 1.84 1.95 1.90 1.90 1.98 1.87 1.60 1.37 1.27 1.27 1.30 1.36 1.31 1.23 1.15 1.05 1.00 0.99 1.05 1.08 0.99 1.00 1.07 1.14 1.21 1.41 1.36 1.62 2.14 2.54 2.11 1.71 1.82 1.95 1.80 1.84
1.30 1.40 1.75 2.07 2.04 1.91 1.72 1.72 1.60 1.53 1.58 1.72 1.68 1.50 1.33 1.32 1.28 1.28 1.28 1.24 1.22 1.17 1.09 1.02 0.95 0.92 0.93 0.87 0.91 1.00 1.10 1.18 1.25 1.39 1.71 2.20 2.47 2.07 1.66 1.71 1.94 2.02 2.04
1.25 1.20 1.44 1.73 1.78 1.76 1.72 1.63 1.56 1.44 1.50 1.52 1.47 1.40 1.31 1.29 1.28 1.23 1.13 1.03 1.03 1.07 1.05 1.00 0.94 0.88 0.82 0.81 0.86 0.92 1.04 1.01 1.05 1.41 1.70 2.10 2.05 1.84 1.56 1.67 1.98 2.19 2.20
1.24 1.13 1.22 1.45 1.49 1.40 1.41 1.61 1.65 1.40 1.45 1.43 1.31 1.28 1.27 1.20 1.18 1.13 0.97 0.95 0.97 1.05 1.07 1.00 0.94 0.86 0.81 0.81 0.88 0.93 1.05 0.86 0.77 1.07 1.38 1.86 2.05 1.89 1.55 1.54 1.81 2.00 2.15
1.36 1.21 1.13 1.08 1.13 1.24 1.40 1.38 1.32 1.37 1.50 1.45 1.26 1.20 1.22 1.05 0.94 0.90 0.91 0.96 0.97 1.06 1.10 1.03 0.94 0.85 0.83 0.85 0.94 0.95 0.98 0.87 0.83 1.04 1.16 1.63 2.01 1.95 1.62 1.52 1.66 1.76 1.97
1.22 1.10 0.97 0.89 0.94 1.02 1.16 1.25 1.23 1.23 1.32 1.32 1.22 1.21 1.21 0.99 0.85 0.88 0.92 1.05 1.08 1.10 1.17 1.11 0.95 0.87 0.85 0.88 0.90 0.83 0.79 0.72 0.78 0.92 1.29 1.50 2.06 2.03 1.65 1.45 1.46 1.51 1.59
1.05 0.96 0.88 0.79 0.83 0.91 0.97 1.01 1.13 1.16 1.19 1.11 1.02 1.05 0.97 0.77 0.75 0.81 0.86 1.17 1.27 1.35 1.33 1.25 1.14 1.01 0.91 0.85 0.84 0.78 0.63 0.61 0.80 0.94 1.24 1.64 2.03 1.96 1.63 1.42 1.43 1.35 1.31
1.03 0.92 0.84 0.83 0.81 0.80 0.80 1.05 1.20 1.04 0.96 0.87 0.89 0.86 0.84 0.85 0.90 0.76 0.83 1.07 1.08 1.15 1.19 1.18 1.18 1.04 0.82 0.67 0.69 0.68 0.56 0.66 0.76 0.84 1.13 1.73 1.98 1.95 1.71 1.48 1.35 1.27 1.21
0.99 0.89 0.78 0.80 0.74 0.68 0.79 0.95 1.13 1.16 1.12 1.09 0.95 0.95 0.90 0.83 0.77 0.66 0.67 0.77 0.81 0.88 0.88 0.97 1.01 0.84 0.69 0.64 0.65 0.59 0.56 0.63 0.74 0.84 1.19 1.83 2.05 2.02 1.88 1.61 1.41 1.30 1.28
0.89 0.92 0.78 0.76 0.68 0.60 0.56 0.65 0.81 0.86 0.86 0.88 0.89 0.83 0.84 0.89 0.87 0.76 0.74 0.80 0.84 0.82 0.92 0.97 0.99 0.88 0.72 0.60 0.58 0.60 0.64 0.67 0.78 0.97 1.24 1.70 2.05 2.09 2.06 1.84 1.66 1.52 1.43
0.86 0.84 0.79 0.77 0.73 0.73 0.69 0.62 0.59 0.64 0.70 0.76 0.84 0.76 0.70 0.76 0.85 0.84 0.80 0.87 0.85 0.88 0.95 0.93 0.80 0.81 0.75 0.63 0.61 0.64 0.73 0.74 0.86 0.96 1.12 1.46 1.93 2.36 2.42 2.25 1.94 1.74 1.73
0.79 0.86 0.83 0.76 0.77 0.71 0.66 0.66 0.67 0.65 0.67 0.71 0.76 0.69 0.64 0.65 0.70 0.81 0.82 0.91 0.87 0.93 1.01 0.89 0.82 0.85 0.84 0.72 0.66 0.70 0.73 0.75 0.83 0.97 1.08 1.28 1.53 2.02 2.47 2.54 2.34 2.13 1.97
0.67 0.78 0.86 0.82 0.83 0.76 0.70 0.71 0.73 0.71 0.66 0.67 0.72 0.65 0.60 0.65 0.66 0.80 0.88 0.92 0.91 0.94 0.96 0.97 0.97 0.92 0.84 0.76 0.76 0.74 0.72 0.74 0.91 1.03 1.07 1.20 1.23 1.31 1.82 2.43 2.66 2.58 2.37
0.65 0.68 0.78 0.79 0.81 0.81 0.79 0.80 0.79 0.74 0.73 0.75 0.77 0.72 0.67 0.67 0.71 0.92 0.99 0.91 0.96 1.07 1.12 1.16 1.12 1.04 0.96 0.95 0.96 0.90 0.81 0.85 1.05 1.14 1.08 1.04 1.09 1.02 1.16 1.52 1.88 2.19 2.48
0.65 0.63 0.65 0.70 0.88 0.89 0.85 0.90 0.91 0.90 0.96 0.97 0.96 0.92 0.86 0.83 0.91 1.08 1.16 1.08 1.07 1.23 1.23 1.13 1.18 1.23 1.18 1.20 1.12 1.10 1.03 1.03 1.08 1.04 1.04 1.11 1.16 1.14 1.16 1.04 1.18 1.44 1.98
0.61 0.57 0.59 0.67 0.79 0.89 1.02 1.09 1.17 1.19 1.20 1.32 1.37 1.33 1.15 1.10 1.15 1.30 1.41 1.38 1.33 1.47 1.50 1.38 1.52 1.58 1.48 1.51 1.35 1.25 1.19 1.17 1.16 1.14 1.14 1.22 1.33 1.23 1.24 1.14 1.08 0.93 1.18
0.50 0.49 0.54 0.68 0.84 0.97 1.08 1.21 1.45 1.61 1.71 1.71 1.71 1.75 1.66 1.47 1.54 1.67 1.65 1.88 1.94 1.93 1.95 1.91 2.08 2.12 1.84 1.67 1.99 1.96 1.56 1.27 1.17 1.24 1.33 1.37 1.48 1.49 1.43 1.36 1.28 1.08 0.99
0.40 0.43 0.50 0.63 0.85 1.07 1.27 1.44 1.61 1.92 2.08 2.08 2.14 2.07 2.00 1.88 1.89 1.82 1.91 2.15 2.21 2.32 2.43 2.28 2.43 2.53 2.21 1.91 2.36 2.83 2.40 1.94 1.35 1.12 1.24 1.40 1.57 1.60 1.52 1.40 1.39 1.34 1.25
0.32 0.37 0.44 0.53 0.75 1.04 1.32 1.57 1.75 1.97 2.23 2.31 2.21 2.18 2.19 2.26 2.29 2.17 2.13 2.27 2.31 2.41 2.64 2.68 2.62 2.75 2.69 2.34 2.30 2.82 2.78 2.42 1.99 1.46 1.29 1.37 1.55 1.66 1.71 1.69 1.53 1.52 1.44
0.31 0.36 0.45 0.54 0.67 0.87 1.13 1.44 1.68 1.92 2.25 2.32 2.28 2.26 2.31 2.38 2.45 2.40 2.35 2.43 2.46 2.45 2.58 2.65 2.63 2.88 3.11 2.85 2.55 2.31 2.26 2.31 2.35 1.96 1.55 1.41 1.54 1.65 1.78 1.73 1.74 1.80 1.77
0.38 0.42 0.53 0.63 0.74 0.90 1.13 1.44 1.75 1.92 2.08 2.27 2.29 2.19 2.13 2.19 2.19 2.15 2.26 2.42 2.45 2.46 2.47 2.65 2.77 2.98 3.02 2.97 2.84 2.67 2.48 2.32 1.98 2.05 1.96 1.70 1.66 1.58 1.71 1.88 1.95 1.99 1.93
0.49 0.58 0.70 0.78 0.94 1.06 1.13 1.24 1.40 1.61 1.89 2.01 2.11 2.14 2.16 2.16 2.03 1.93 2.04 2.13 2.22 2.29 2.30 2.35 2.51 2.67 2.88 3.02 2.96 2.79 2.72 2.66 2.46 2.28 1.98 1.83 1.89 1.74 1.65 1.69 1.80 1.88 2.01